• en France
  • Liste des pays
  • À 7 jours
  • Température de l'eau
  • Carte satellitaire
  • Carte météo
  • Widgets météo
  • user-avatar
    Se connecter

    Météo par heure à Chakhansur

    Ce jour, 18 Janvier, Jeudi

    Heure Température Précipitation Vent Pression Humidité
    00:00 +9°C° 0 mm 2 m/s 720 mmHg 24%
    01:00 +9°C° 0 mm 2 m/s 720 mmHg 24%
    02:00 +9°C° 0 mm 2 m/s 720 mmHg 24%
    03:00 +9°C° 0 mm 2 m/s 720 mmHg 24%
    04:00 +8°C° 0 mm 2 m/s 720 mmHg 25%
    05:00 +8°C° 0 mm 3 m/s 720 mmHg 25%
    06:00 +8°C° 0 mm 3 m/s 720 mmHg 25%
    07:00 +7°C° 0 mm 3 m/s 720 mmHg 25%
    08:00 +9°C° 0 mm 3 m/s 721 mmHg 22%
    09:00 +12°C° 0 mm 4 m/s 721 mmHg 19%
    10:00 +14°C° 0 mm 4 m/s 721 mmHg 16%
    11:00 +15°C° 0 mm 4 m/s 721 mmHg 14%
    12:00 +18°C° 0 mm 4 m/s 720 mmHg 13%
    13:00 +19°C° 0 mm 3 m/s 719 mmHg 12%
    14:00 +19°C° 0 mm 3 m/s 719 mmHg 11%
    15:00 +20°C° 0 mm 3 m/s 719 mmHg 11%
    16:00 +20°C° 0 mm 2 m/s 718 mmHg 10%
    17:00 +18°C° 0 mm 2 m/s 718 mmHg 12%
    18:00 +17°C° 0 mm 2 m/s 718 mmHg 14%
    19:00 +15°C° 0 mm 2 m/s 718 mmHg 15%
    20:00 +14°C° 0 mm 2 m/s 718 mmHg 16%
    21:00 +14°C° 0 mm 2 m/s 719 mmHg 17%
    22:00 +13°C° 0 mm 2 m/s 719 mmHg 17%
    23:00 +13°C° 0 mm 2 m/s 719 mmHg 18%

    Demain, 19 Janvier, Vendredi

    Heure Température Précipitation Vent Pression Humidité
    00:00 +12°C° 0 mm 2 m/s 719 mmHg 18%
    01:00 +12°C° 0 mm 2 m/s 719 mmHg 19%
    02:00 +10°C° 0 mm 2 m/s 719 mmHg 19%
    03:00 +10°C° 0 mm 2 m/s 719 mmHg 19%
    04:00 +10°C° 0 mm 2 m/s 719 mmHg 19%
    05:00 +10°C° 0 mm 1 m/s 719 mmHg 20%
    06:00 +10°C° 0 mm 1 m/s 720 mmHg 20%
    07:00 +9°C° 0 mm 1 m/s 720 mmHg 21%
    08:00 +12°C° 0 mm 1 m/s 721 mmHg 18%
    09:00 +14°C° 0 mm 1 m/s 722 mmHg 16%
    10:00 +16°C° 0 mm 1 m/s 723 mmHg 13%
    11:00 +19°C° 0 mm 1 m/s 722 mmHg 12%
    12:00 +20°C° 0 mm 1 m/s 722 mmHg 12%
    13:00 +19°C° 0 mm 0 m/s 722 mmHg 11%
    14:00 +19°C° 0 mm 0 m/s 721 mmHg 11%
    15:00 +22°C° 0 mm 1 m/s 721 mmHg 12%
    16:00 +22°C° 0 mm 1 m/s 721 mmHg 12%
    17:00 +20°C° 0 mm 1 m/s 722 mmHg 13%
    18:00 +18°C° 0 mm 1 m/s 722 mmHg 15%
    19:00 +16°C° 0 mm 1 m/s 722 mmHg 17%
    20:00 +16°C° 0 mm 2 m/s 722 mmHg 16%
    21:00 +15°C° 0 mm 2 m/s 722 mmHg 16%
    22:00 +14°C° 0 mm 3 m/s 722 mmHg 16%
    23:00 +14°C° 0 mm 3 m/s 722 mmHg 17%

    Après-demain, 20 Janvier, Samedi

    Heure Température Précipitation Vent Pression Humidité
    00:00 +14°C° 0 mm 3 m/s 722 mmHg 18%
    01:00 +13°C° 0 mm 3 m/s 722 mmHg 19%
    02:00 +13°C° 0 mm 3 m/s 721 mmHg 20%
    03:00 +12°C° 0 mm 3 m/s 721 mmHg 22%
    04:00 +12°C° 0 mm 3 m/s 720 mmHg 23%
    05:00 +11°C° 0 mm 3 m/s 721 mmHg 25%
    06:00 +11°C° 0 mm 3 m/s 721 mmHg 27%
    07:00 +11°C° 0 mm 3 m/s 721 mmHg 29%
    08:00 +13°C° 0 mm 4 m/s 721 mmHg 27%
    09:00 +15°C° 0 mm 4 m/s 721 mmHg 24%
    10:00 +18°C° 0 mm 4 m/s 722 mmHg 22%
    11:00 +20°C° 0 mm 4 m/s 721 mmHg 21%
    12:00 +21°C° 0 mm 3 m/s 720 mmHg 20%
    13:00 +22°C° 0 mm 3 m/s 720 mmHg 19%
    14:00 +24°C° 0 mm 3 m/s 719 mmHg 18%
    15:00 +24°C° 0 mm 3 m/s 719 mmHg 17%
    16:00 +24°C° 0 mm 2 m/s 718 mmHg 17%
    17:00 +21°C° 0 mm 2 m/s 718 mmHg 19%
    18:00 +20°C° 0 mm 1 m/s 718 mmHg 22%
    19:00 +18°C° 0 mm 1 m/s 718 mmHg 25%
    20:00 +18°C° 0 mm 1 m/s 718 mmHg 25%
    21:00 +17°C° 0 mm 2 m/s 718 mmHg 24%
    22:00 +16°C° 0 mm 2 m/s 718 mmHg 24%
    23:00 +16°C° 0 mm 2 m/s 718 mmHg 24%

    21 Janvier, Dimanche

    Heure Température Précipitation Vent Pression Humidité
    00:00 +14°C° 0 mm 3 m/s 717 mmHg 24%
    01:00 +14°C° 0 mm 3 m/s 717 mmHg 24%
    02:00 +14°C° 0 mm 3 m/s 717 mmHg 25%
    03:00 +13°C° 0 mm 3 m/s 716 mmHg 25%
    04:00 +13°C° 0 mm 3 m/s 716 mmHg 25%
    05:00 +12°C° 0 mm 3 m/s 716 mmHg 26%
    06:00 +12°C° 0 mm 4 m/s 716 mmHg 28%
    07:00 +12°C° 0 mm 4 m/s 716 mmHg 29%
    08:00 +13°C° 0 mm 4 m/s 716 mmHg 27%
    09:00 +15°C° 0 mm 4 m/s 716 mmHg 25%
    10:00 +18°C° 0 mm 4 m/s 717 mmHg 23%
    11:00 +20°C° 0 mm 4 m/s 716 mmHg 21%
    12:00 +21°C° 0 mm 4 m/s 715 mmHg 20%
    13:00 +22°C° 0 mm 4 m/s 715 mmHg 18%
    14:00 +22°C° 0 mm 4 m/s 714 mmHg 18%
    15:00 +22°C° 0 mm 4 m/s 714 mmHg 19%
    16:00 +21°C° 0 mm 4 m/s 714 mmHg 19%
    17:00 +20°C° 0 mm 4 m/s 714 mmHg 20%
    18:00 +19°C° 0 mm 5 m/s 715 mmHg 21%
    19:00 +17°C° 0 mm 5 m/s 715 mmHg 22%
    20:00 +16°C° 0 mm 6 m/s 715 mmHg 26%
    21:00 +15°C° 0 mm 7 m/s 716 mmHg 29%
    22:00 +13°C° 0 mm 8 m/s 716 mmHg 32%
    23:00 +12°C° 0 mm 8 m/s 716 mmHg 36%

    22 Janvier, Lundi

    Heure Température Précipitation Vent Pression Humidité
    00:00 +11°C° 0 mm 9 m/s 716 mmHg 40%
    01:00 +10°C° 0 mm 9 m/s 716 mmHg 44%
    02:00 +10°C° 0 mm 9 m/s 716 mmHg 45%
    03:00 +9°C° 0 mm 10 m/s 716 mmHg 47%
    04:00 +8°C° 0 mm 10 m/s 716 mmHg 48%
    05:00 +8°C° 0 mm 10 m/s 717 mmHg 48%
    06:00 +8°C° 0 mm 9 m/s 717 mmHg 49%
    07:00 +7°C° 0 mm 8 m/s 718 mmHg 49%
    08:00 +8°C° 0 mm 9 m/s 718 mmHg 46%
    09:00 +10°C° 0 mm 9 m/s 719 mmHg 43%
    10:00 +11°C° 0 mm 9 m/s 719 mmHg 39%
    11:00 +13°C° 0 mm 9 m/s 719 mmHg 36%
    12:00 +15°C° 0 mm 9 m/s 718 mmHg 33%
    13:00 +16°C° 0 mm 8 m/s 718 mmHg 30%
    14:00 +16°C° 0 mm 8 m/s 718 mmHg 30%
    15:00 +16°C° 0 mm 8 m/s 718 mmHg 29%
    16:00 +17°C° 0 mm 7 m/s 718 mmHg 29%
    17:00 +16°C° 0 mm 7 m/s 718 mmHg 30%
    18:00 +15°C° 0 mm 6 m/s 718 mmHg 30%
    19:00 +14°C° 0 mm 5 m/s 719 mmHg 31%
    20:00 +13°C° 0 mm 5 m/s 719 mmHg 31%
    21:00 +12°C° 0 mm 5 m/s 719 mmHg 32%
    22:00 +12°C° 0 mm 5 m/s 719 mmHg 32%
    23:00 +11°C° 0 mm 4 m/s 719 mmHg 33%

    23 Janvier, Mardi

    Heure Température Précipitation Vent Pression Humidité
    00:00 +11°C° 0 mm 4 m/s 719 mmHg 35%
    01:00 +10°C° 0 mm 4 m/s 719 mmHg 36%
    02:00 +10°C° 0 mm 4 m/s 718 mmHg 38%
    03:00 +9°C° 0 mm 3 m/s 718 mmHg 39%
    04:00 +9°C° 0 mm 3 m/s 718 mmHg 41%
    05:00 +8°C° 0 mm 2 m/s 718 mmHg 42%
    06:00 +8°C° 0 mm 2 m/s 719 mmHg 44%
    07:00 +7°C° 0 mm 2 m/s 719 mmHg 45%
    08:00 +10°C° 0 mm 1 m/s 719 mmHg 41%
    09:00 +12°C° 0 mm 1 m/s 720 mmHg 36%
    10:00 +14°C° 0 mm 1 m/s 720 mmHg 31%
    11:00 +15°C° 0 mm 1 m/s 720 mmHg 28%
    12:00 +16°C° 0 mm 1 m/s 719 mmHg 25%
    13:00 +18°C° 0 mm 1 m/s 718 mmHg 22%
    14:00 +19°C° 0 mm 1 m/s 718 mmHg 21%
    15:00 +19°C° 0 mm 1 m/s 718 mmHg 20%
    16:00 +20°C° 0 mm 1 m/s 718 mmHg 19%
    17:00 +18°C° 0 mm 1 m/s 718 mmHg 21%
    18:00 +16°C° 0 mm 1 m/s 718 mmHg 23%
    19:00 +15°C° 0 mm 1 m/s 718 mmHg 25%
    20:00 +14°C° 0 mm 1 m/s 718 mmHg 25%
    21:00 +14°C° 0 mm 1 m/s 718 mmHg 26%
    22:00 +14°C° 0 mm 1 m/s 718 mmHg 26%
    23:00 +13°C° 0 mm 2 m/s 718 mmHg 26%
    Voir plus